Location: *
(57.8420°S, 159.8600°W)
Time: 04:14:38
(UTC+00:00)

Cosmos 1689 Rocket - Pass Details

Date: 18 May 2021
Orbit: 344 x 354 km, 97.5° (Epoch: 20 June)

Event Time Altitude Azimuth Distance (km) Brightness Sun altitude
Rises 05:21:31 0° 351° (N) 2,200 6.0 -22.5°
Reaches altitude 10° 05:23:36 10° 339° (NNW) 1,364 5.1 -22.8°
Maximum altitude 05:26:10 28° 277° (W) 745 4.2 -23.2°
Drops below altitude 10° 05:28:46 10° 215° (SW) 1,389 5.3 -23.5°
Sets 05:30:55 0° 202° (SSW) 2,250 6.2 -23.8°
